Time,TemperatureF,DewpointF,PressureIn,WindDirection,WindDirectionDegrees,WindSpeedMPH,WindSpeedGustMPH,Humidity,HourlyPrecipIn,Conditions,Clouds,dailyrainin,SolarRadiationWatts/m^2,SoftwareType,DateUTC
2013-01-14 00:04:00,60.0,59.0,-100.00,South,183,5.0,15.0,98,0.14,,,0.15,0.000000,,2013-01-14 05:04:00,
2013-01-14 00:33:00,60.0,60.0,-100.00,SSW,195,3.0,11.0,99,0.12,,,0.27,0.000000,,2013-01-14 05:33:00,
2013-01-14 00:43:00,60.0,60.0,-100.00,SSW,195,3.0,11.0,99,0.12,,,0.27,0.000000,,2013-01-14 05:43:00,
2013-01-14 00:53:00,60.0,60.0,-100.00,SSW,195,3.0,11.0,99,0.12,,,0.27,0.000000,,2013-01-14 05:53:00,
2013-01-14 01:03:00,60.0,60.0,-100.00,SSW,195,3.0,11.0,99,0.12,,,0.27,0.000000,,2013-01-14 06:03:00,
2013-01-14 01:33:00,60.0,60.0,-100.00,SSW,211,2.0,9.0,100,0.35,,,0.62,0.000000,,2013-01-14 06:33:00,
2013-01-14 01:43:00,60.0,60.0,-100.00,SSW,211,2.0,9.0,100,0.35,,,0.62,0.000000,,2013-01-14 06:43:00,
2013-01-14 01:53:00,60.0,60.0,-100.00,SSW,211,2.0,9.0,100,0.35,,,0.62,0.000000,,2013-01-14 06:53:00,
2013-01-14 02:02:00,60.0,60.0,-100.00,SSW,211,2.0,9.0,100,0.35,,,0.62,0.000000,,2013-01-14 07:02:00,
2013-01-14 02:33:00,60.0,60.0,-100.00,SE,131,2.0,6.0,100,0.12,,,0.74,0.000000,,2013-01-14 07:33:00,
2013-01-14 02:43:00,60.0,60.0,-100.00,SE,131,2.0,6.0,100,0.12,,,0.74,0.000000,,2013-01-14 07:43:00,
2013-01-14 02:53:00,60.0,60.0,-100.00,SE,131,2.0,6.0,100,0.12,,,0.74,0.000000,,2013-01-14 07:53:00,
2013-01-14 03:02:00,60.0,60.0,-100.00,SE,131,2.0,6.0,100,0.12,,,0.74,0.000000,,2013-01-14 08:02:00,
2013-01-14 03:33:00,60.0,60.0,-100.00,SW,231,2.0,7.0,100,0.00,,,0.74,0.000000,,2013-01-14 08:33:00,
2013-01-14 03:43:00,60.0,60.0,-100.00,SW,231,2.0,7.0,100,0.00,,,0.74,0.000000,,2013-01-14 08:43:00,
2013-01-14 03:53:00,60.0,60.0,-100.00,SW,231,2.0,7.0,100,0.00,,,0.74,0.000000,,2013-01-14 08:53:00,
2013-01-14 04:03:00,60.0,60.0,-100.00,SW,231,2.0,7.0,100,0.00,,,0.74,0.000000,,2013-01-14 09:03:00,
2013-01-14 04:34:00,60.0,60.0,-100.00,South,189,3.0,7.0,99,0.00,,,0.74,0.000000,,2013-01-14 09:34:00,
2013-01-14 04:43:00,60.0,60.0,-100.00,South,189,3.0,7.0,99,0.00,,,0.74,0.000000,,2013-01-14 09:43:00,
2013-01-14 04:53:00,60.0,60.0,-100.00,South,189,3.0,7.0,99,0.00,,,0.74,0.000000,,2013-01-14 09:53:00,
2013-01-14 05:02:00,60.0,60.0,-100.00,South,189,3.0,7.0,99,0.00,,,0.74,0.000000,,2013-01-14 10:02:00,
2013-01-14 05:33:00,60.0,60.0,-100.00,SSW,201,5.0,11.0,99,0.00,,,0.74,0.000000,,2013-01-14 10:33:00,
2013-01-14 05:43:00,60.0,60.0,-100.00,SSW,201,5.0,11.0,99,0.00,,,0.74,0.000000,,2013-01-14 10:43:00,
2013-01-14 05:53:00,60.0,60.0,-100.00,SSW,201,5.0,11.0,99,0.00,,,0.74,0.000000,,2013-01-14 10:53:00,
2013-01-14 06:02:00,60.0,60.0,-100.00,SSW,201,5.0,11.0,99,0.00,,,0.74,0.000000,,2013-01-14 11:02:00,
2013-01-14 06:33:00,60.0,59.0,-100.00,SSW,192,3.0,9.0,97,0.00,,,0.74,0.000000,,2013-01-14 11:33:00,
2013-01-14 06:43:00,60.0,59.0,-100.00,SSW,192,3.0,9.0,97,0.00,,,0.74,0.000000,,2013-01-14 11:43:00,
2013-01-14 06:53:00,60.0,59.0,-100.00,SSW,192,3.0,9.0,97,0.00,,,0.74,0.000000,,2013-01-14 11:53:00,
2013-01-14 07:03:00,60.0,59.0,-100.00,SSW,192,3.0,9.0,97,0.00,,,0.74,0.000000,,2013-01-14 12:03:00,
2013-01-14 07:33:00,61.0,60.0,-100.00,West,279,2.0,10.0,98,0.01,,,0.75,0.000000,,2013-01-14 12:33:00,
2013-01-14 07:43:00,61.0,60.0,-100.00,West,279,2.0,10.0,98,0.01,,,0.75,0.000000,,2013-01-14 12:43:00,
2013-01-14 07:53:00,61.0,60.0,-100.00,West,279,2.0,10.0,98,0.01,,,0.75,0.000000,,2013-01-14 12:53:00,
2013-01-14 08:03:00,61.0,60.0,-100.00,West,279,2.0,10.0,98,0.01,,,0.75,0.000000,,2013-01-14 13:03:00,
2013-01-14 08:34:00,61.0,61.0,-100.00,West,278,3.0,8.0,99,0.01,,,0.76,0.000000,,2013-01-14 13:34:00,
2013-01-14 08:43:00,61.0,61.0,-100.00,West,278,3.0,8.0,99,0.01,,,0.76,0.000000,,2013-01-14 13:43:00,
2013-01-14 08:53:00,61.0,61.0,-100.00,West,278,3.0,8.0,99,0.01,,,0.76,0.000000,,2013-01-14 13:53:00,
2013-01-14 09:03:00,61.0,61.0,-100.00,West,278,3.0,8.0,99,0.01,,,0.76,0.000000,,2013-01-14 14:03:00,
2013-01-14 09:33:00,61.0,61.0,-100.00,WNW,283,3.0,8.0,99,0.05,,,0.81,0.000000,,2013-01-14 14:33:00,
2013-01-14 09:43:00,61.0,61.0,-100.00,WNW,283,3.0,8.0,99,0.05,,,0.81,0.000000,,2013-01-14 14:43:00,
2013-01-14 09:53:00,61.0,61.0,-100.00,WNW,283,3.0,8.0,99,0.05,,,0.81,0.000000,,2013-01-14 14:53:00,
2013-01-14 10:03:00,61.0,61.0,-100.00,WNW,283,3.0,8.0,99,0.05,,,0.81,0.000000,,2013-01-14 15:03:00,
2013-01-14 10:34:00,61.0,61.0,-100.00,South,184,4.0,9.0,100,0.03,,,0.84,0.000000,,2013-01-14 15:34:00,
2013-01-14 10:43:00,61.0,61.0,-100.00,South,184,4.0,9.0,100,0.03,,,0.84,0.000000,,2013-01-14 15:43:00,
2013-01-14 10:53:00,61.0,61.0,-100.00,South,184,4.0,9.0,100,0.03,,,0.84,0.000000,,2013-01-14 15:53:00,
2013-01-14 11:03:00,61.0,61.0,-100.00,South,184,4.0,9.0,100,0.03,,,0.84,0.000000,,2013-01-14 16:03:00,
2013-01-14 11:33:00,62.0,61.0,-100.00,SW,223,2.0,11.0,98,0.02,,,0.86,0.000000,,2013-01-14 16:33:00,
2013-01-14 11:43:00,62.0,61.0,-100.00,SW,223,2.0,11.0,98,0.02,,,0.86,0.000000,,2013-01-14 16:43:00,
2013-01-14 11:53:00,62.0,61.0,-100.00,SW,223,2.0,11.0,98,0.02,,,0.86,0.000000,,2013-01-14 16:53:00,
2013-01-14 12:03:00,62.0,61.0,-100.00,SW,223,2.0,11.0,98,0.02,,,0.86,0.000000,,2013-01-14 17:03:00,
2013-01-14 12:34:00,62.0,62.0,-100.00,South,176,3.0,7.0,100,0.04,,,0.90,0.000000,,2013-01-14 17:34:00,
2013-01-14 12:43:00,62.0,62.0,-100.00,South,176,3.0,7.0,100,0.04,,,0.90,0.000000,,2013-01-14 17:43:00,
2013-01-14 12:54:00,62.0,62.0,-100.00,South,176,3.0,7.0,100,0.04,,,0.90,0.000000,,2013-01-14 17:54:00,
2013-01-14 13:03:00,62.0,62.0,-100.00,South,176,3.0,7.0,100,0.04,,,0.90,0.000000,,2013-01-14 18:03:00,
2013-01-14 13:33:00,60.0,60.0,-100.00,NE,38,3.0,6.0,100,0.15,,,1.05,0.000000,,2013-01-14 18:33:00,
2013-01-14 13:43:00,60.0,60.0,-100.00,NE,38,3.0,6.0,100,0.15,,,1.05,0.000000,,2013-01-14 18:43:00,
2013-01-14 13:53:00,60.0,60.0,-100.00,NE,38,3.0,6.0,100,0.15,,,1.05,0.000000,,2013-01-14 18:53:00,
2013-01-14 14:03:00,60.0,60.0,-100.00,NE,38,3.0,6.0,100,0.15,,,1.05,0.000000,,2013-01-14 19:03:00,
2013-01-14 14:33:00,57.0,57.0,-100.00,ENE,62,4.0,7.0,100,0.16,,,1.21,0.000000,,2013-01-14 19:33:00,
2013-01-14 14:43:00,57.0,57.0,-100.00,ENE,62,4.0,7.0,100,0.16,,,1.21,0.000000,,2013-01-14 19:43:00,
2013-01-14 14:53:00,57.0,57.0,-100.00,ENE,62,4.0,7.0,100,0.16,,,1.21,0.000000,,2013-01-14 19:53:00,
2013-01-14 15:03:00,57.0,57.0,-100.00,ENE,62,4.0,7.0,100,0.16,,,1.21,0.000000,,2013-01-14 20:03:00,
2013-01-14 15:34:00,57.0,57.0,-100.00,NNE,28,3.0,6.0,100,0.13,,,1.34,0.000000,,2013-01-14 20:34:00,
2013-01-14 15:43:00,57.0,57.0,-100.00,NNE,28,3.0,6.0,100,0.13,,,1.34,0.000000,,2013-01-14 20:43:00,
2013-01-14 15:53:00,57.0,57.0,-100.00,NNE,28,3.0,6.0,100,0.13,,,1.34,0.000000,,2013-01-14 20:53:00,
2013-01-14 16:03:00,57.0,57.0,-100.00,NNE,28,3.0,6.0,100,0.13,,,1.34,0.000000,,2013-01-14 21:03:00,
2013-01-14 16:33:00,60.0,60.0,-100.00,South,170,2.0,7.0,100,0.06,,,1.40,0.000000,,2013-01-14 21:33:00,
2013-01-14 16:43:00,60.0,60.0,-100.00,South,170,2.0,7.0,100,0.06,,,1.40,0.000000,,2013-01-14 21:43:00,
2013-01-14 16:53:00,60.0,60.0,-100.00,South,170,2.0,7.0,100,0.06,,,1.40,0.000000,,2013-01-14 21:53:00,
2013-01-14 17:03:00,60.0,60.0,-100.00,South,170,2.0,7.0,100,0.06,,,1.40,0.000000,,2013-01-14 22:03:00,
2013-01-14 17:33:00,60.0,60.0,-100.00,SSW,201,3.0,7.0,99,0.04,,,-99.99,0.000000,,2013-01-14 22:33:00,
2013-01-14 17:43:00,60.0,60.0,-100.00,SSW,201,3.0,7.0,99,0.04,,,-99.99,0.000000,,2013-01-14 22:43:00,
2013-01-14 17:53:00,60.0,60.0,-100.00,SSW,201,3.0,7.0,99,0.04,,,-99.99,0.000000,,2013-01-14 22:53:00,
2013-01-14 18:03:00,60.0,60.0,-100.00,SSW,201,3.0,7.0,99,0.04,,,-99.99,0.000000,,2013-01-14 23:03:00,
2013-01-14 18:33:00,60.0,60.0,-100.00,North,10,2.0,6.0,99,0.04,,,1.48,0.000000,,2013-01-14 23:33:00,
2013-01-14 18:43:00,60.0,60.0,-100.00,North,10,2.0,6.0,99,0.04,,,1.48,0.000000,,2013-01-14 23:43:00,
2013-01-14 18:53:00,60.0,60.0,-100.00,North,10,2.0,6.0,99,0.04,,,1.48,0.000000,,2013-01-14 23:53:00,
2013-01-14 19:03:00,60.0,60.0,-100.00,North,10,2.0,6.0,99,0.04,,,1.48,0.000000,,2013-01-15 00:03:00,
2013-01-14 19:33:00,59.0,59.0,-100.00,NE,48,3.0,5.0,100,0.04,,,1.52,0.000000,,2013-01-15 00:33:00,
2013-01-14 19:43:00,59.0,59.0,-100.00,NE,48,3.0,5.0,100,0.04,,,1.52,0.000000,,2013-01-15 00:43:00,
2013-01-14 19:53:00,59.0,59.0,-100.00,NE,48,3.0,5.0,100,0.04,,,1.52,0.000000,,2013-01-15 00:53:00,
2013-01-14 20:02:00,59.0,59.0,-100.00,NE,48,3.0,5.0,100,0.04,,,1.52,0.000000,,2013-01-15 01:02:00,
2013-01-14 21:33:00,53.0,52.0,-100.00,NE,41,7.0,12.0,98,-99.99,,,1.61,0.000000,,2013-01-15 02:33:00,
2013-01-14 21:43:00,53.0,52.0,-100.00,NE,41,7.0,12.0,98,-99.99,,,1.61,0.000000,,2013-01-15 02:43:00,
2013-01-14 21:53:00,53.0,52.0,-100.00,NE,41,7.0,12.0,98,-99.99,,,1.61,0.000000,,2013-01-15 02:53:00,
2013-01-14 22:03:00,53.0,52.0,-100.00,NE,41,7.0,12.0,98,-99.99,,,1.61,0.000000,,2013-01-15 03:03:00,
2013-01-14 22:33:00,53.0,53.0,-100.00,East,94,3.0,7.0,100,0.00,,,1.60,0.000000,,2013-01-15 03:33:00,
2013-01-14 22:43:00,53.0,53.0,-100.00,East,94,3.0,7.0,100,0.00,,,1.60,0.000000,,2013-01-15 03:43:00,
2013-01-14 22:53:00,53.0,53.0,-100.00,East,94,3.0,7.0,100,0.00,,,1.60,0.000000,,2013-01-15 03:53:00,
2013-01-14 23:03:00,53.0,53.0,-100.00,East,94,3.0,7.0,100,0.00,,,1.60,0.000000,,2013-01-15 04:03:00,
2013-01-14 23:33:00,52.0,52.0,-100.00,East,100,4.0,6.0,100,0.00,,,-99.99,0.000000,,2013-01-15 04:33:00,
2013-01-14 23:43:00,52.0,52.0,-100.00,East,100,4.0,6.0,100,0.00,,,-99.99,0.000000,,2013-01-15 04:43:00,
2013-01-14 23:52:00,52.0,52.0,-100.00,East,100,4.0,6.0,100,0.00,,,-99.99,0.000000,,2013-01-15 04:52:00,